Location: Blandford
(50.8667°N, 2.1667°W)
Time: 08:04:48
(UTC+00:00)

ARGOS - Pass Details

Date: 09 April 2020
Orbit: 820 x 834 km, 98.5° (Epoch: 02 June)

Event Time Altitude Azimuth Distance (km) Brightness Sun altitude
Rises 19:23:48 0° 157° (SSE) 3,358 5.9 -5.2°
Reaches altitude 10° 19:26:09 10° 156° (SSE) 2,427 5.2 -5.5°
Maximum altitude 19:31:30 75° 72° (ENE) 861 3.2 -6.3°
Drops below altitude 10° 19:36:53 10° 348° (NNW) 2,436 6.1 -7.1°
Sets 19:39:15 0° 347° (NNW) 3,371 6.9 -7.4°
